Station PFXC1 - 9410670 - Los Angeles Pier F, CA Image indicating link to RSS feed of recent meteorological observations for station PFXC1


Conditions at PFXC1 as of
(11:54 pm PDT on 05/23/2024)
0654 GMT on 05/24/2024:
     

Click on the graph icon in the table below to see a time series plot of the last five days of that observation.

5-day plot - Wind Direction Wind Direction (WDIR): S ( 170 deg true )
5-day plot - Wind Speed Wind Speed (WSPD): 2.9 kts
5-day plot - Wind Gust Wind Gust (GST): 5.1 kts
5-day plot - Atmospheric Pressure Atmospheric Pressure (PRES):29.92 in
5-day plot - Air Temperature Air Temperature (ATMP): 59.5 °F
5-day plot - Wind Speed at 10 Meters Wind Speed at 10 meters (WSPD10M): 3.9 kts
5-day plot - Wind Speed at 20 Meters Wind Speed at 20 meters (WSPD20M): 3.9 kts
5-day plot -  Wind Speed, Wind Gust and Atmospheric Pressure Combined plot of Wind Speed, Gust, and Air Pressure
NOS Water Level Observation Network Water Level
Previous observations
TIME
(PDT)
5-day plot - Wind Direction
WDIR
 
5-day plot - Wind Speed
WSPD
kts
5-day plot - Wind Gust
GST
kts
5-day plot - Wave Height
WVHT
ft
5-day plot - Dominant Wave Period
DPD
sec
5-day plot - Average Wave Period
APD
sec
5-day plot - Mean Wave Direction
MWD
 
5-day plot - Atmospheric Pressure
PRES
in
5-day plot - Pressure Tendency
PTDY
in
5-day plot - Air Temperature
ATMP
°F
5-day plot - Water Temperature
WTMP
°F
5-day plot - Dew Point
DEWP
°F
5-day plot - Salinity
SAL
psu
5-day plot - Visibility
VIS
nmi
5-day plot - Tide (above MLLW)
TIDE
ft
2024-05-23 11:48 pm S 4.1 5.1----29.92- 59.7-----
2024-05-23 11:42 pm S 4.1 4.1----29.93- 59.7-----
2024-05-23 11:36 pmSSW 2.9 4.1----29.93- 59.7-----
2024-05-23 11:30 pmSSW 4.1 4.1----29.93- 59.7-----
2024-05-23 11:24 pm S 2.9 4.1----29.93- 59.7-----
2024-05-23 11:18 pmSSW 4.1 4.1----29.93- 59.7-----
2024-05-23 11:12 pm S 2.9 2.9----29.93- 59.7-----
2024-05-23 11:06 pm S 2.9 2.9----29.93- 59.5-----
2024-05-23 11:00 pm S 2.9 2.9----29.93+0.03------
2024-05-23 10:54 pm S 2.9 2.9----29.93-------
2024-05-23 10:48 pm S 1.9 1.9----29.93- 59.7-----
2024-05-23 10:42 pm S 1.0 1.9----29.93- 59.9-----
2024-05-23 10:36 pm S 1.9 1.9----29.93- 59.9-----
2024-05-23 10:30 pm S 1.0 1.9----29.93- 60.1-----
2024-05-23 10:24 pmSSW 1.0 1.9----29.93- 60.1-----
2024-05-23 10:18 pmNNE 1.0 2.9----29.93- 60.1-----
2024-05-23 10:12 pm- 0.0 1.9----29.94- 59.7-----
2024-05-23 10:06 pm- 0.0 1.0----29.94- 59.7-----
2024-05-23 10:00 pm- 0.0 1.0----29.94+0.04 59.7-----
2024-05-23 09:54 pm- 0.0 1.0----29.93- 59.9-----
2024-05-23 09:48 pm- 0.0 1.9----29.93-------
2024-05-23 09:42 pm NW 1.0 1.9----29.93-------
2024-05-23 09:36 pm SW 1.0 1.9----29.93-------
2024-05-23 09:30 pm- 0.0 1.0----29.93- 59.9-----
2024-05-23 09:24 pm- 0.0 1.9----29.93- 59.7-----
2024-05-23 09:18 pmSSW 2.9 2.9----29.92- 59.9-----
2024-05-23 09:12 pmSSW 1.9 2.9----29.92- 60.1-----
2024-05-23 09:06 pm- 0.0 4.1----29.92- 60.4-----
2024-05-23 09:00 pm N 2.9 4.1----29.92+0.03 60.6-----
2024-05-23 08:54 pm N 2.9 4.1----29.92- 60.6-----
2024-05-23 08:48 pmNNW 5.1 5.1----29.92- 60.4-----
2024-05-23 08:42 pmNNW 4.1 6.0----29.91- 60.6-----
2024-05-23 08:36 pm NW 5.1 7.0----29.91- 60.6-----
2024-05-23 08:30 pm NW 7.0 8.9----29.91- 60.6-----
2024-05-23 08:24 pm NW 8.0 8.9----29.91- 60.6-----
2024-05-23 08:18 pm NW 8.0 11.1----29.91- 60.6-----
2024-05-23 08:12 pm NW 9.9 12.0----29.91- 60.8-----
2024-05-23 08:06 pm NW 8.0 9.9----29.91- 61.2-----
2024-05-23 08:00 pm NW 8.0 8.9----29.91+0.00 61.5-----
2024-05-23 07:54 pm NW 8.0 9.9----29.91- 61.3-----
2024-05-23 07:48 pm NW 8.0 9.9----29.90- 61.5-----
2024-05-23 07:42 pm NW 8.0 8.9----29.90- 61.7-----
2024-05-23 07:36 pm NW 8.0 8.9----29.90- 62.4-----
2024-05-23 07:30 pm NW 7.0 9.9----29.90- 62.2-----
2024-05-23 07:24 pm NW 8.9 9.9----29.90- 62.6-----
2024-05-23 07:18 pmNNW 8.0 9.9----29.90- 62.8-----
2024-05-23 07:12 pm NW 8.0 8.9----29.90- 63.1-----
2024-05-23 07:06 pmNNW 7.0 8.9----29.90- 63.5-----
2024-05-23 07:00 pmNNW 6.0 8.9----29.90-0.02 63.7-----
2024-05-23 06:54 pm W 5.1 8.0----29.90- 63.3-----
2024-05-23 06:48 pmSSW 4.1 6.0----29.90- 63.7-----
2024-05-23 06:42 pm SW 6.0 6.0----29.90- 63.9-----
2024-05-23 06:36 pmSSW 5.1 6.0----29.89- 63.7-----
2024-05-23 06:30 pmSSW 2.9 4.1----29.89- 63.5-----
2024-05-23 06:24 pm SW 2.9 5.1----29.89- 65.5-----
2024-05-23 06:18 pm SW 4.1 5.1----29.90- 66.0-----
2024-05-23 06:12 pm SW 4.1 5.1----29.90- 66.4-----
2024-05-23 06:06 pm SW 5.1 6.0----29.90- 66.4-----
2024-05-23 06:00 pm SW 5.1 6.0----29.90-0.03 66.4-----
2024-05-23 05:54 pmWSW 5.1 8.0----29.90- 66.4-----
2024-05-23 05:48 pm SW 4.1 5.1----29.90- 66.7-----
2024-05-23 05:42 pm SW 5.1 6.0----29.90- 66.2-----
2024-05-23 05:36 pm SW 5.1 7.0----29.90- 65.7-----
2024-05-23 05:30 pm SW 6.0 8.0----29.90- 66.0-----
2024-05-23 05:24 pm SW 7.0 8.0----29.90- 66.0-----
2024-05-23 05:18 pm SW 6.0 8.0----29.90- 66.2-----
2024-05-23 05:12 pm SW 7.0 8.0----29.90- 66.6-----
2024-05-23 05:06 pm SW 7.0 8.9----29.90- 66.6-----
2024-05-23 05:00 pm SW 7.0 8.0----29.91-0.03 66.0-----
2024-05-23 04:54 pm SW 7.0 9.9----29.91- 65.8-----
2024-05-23 04:48 pm SW 8.0 8.9----29.91- 66.0-----
2024-05-23 04:42 pm SW 7.0 8.0----29.91- 66.4-----
2024-05-23 04:36 pm SW 8.0 8.9----29.91- 66.0-----
2024-05-23 04:30 pm SW 7.0 9.9----29.91- 65.8-----
2024-05-23 04:24 pm SW 7.0 8.9----29.91- 66.0-----
2024-05-23 04:18 pm SW 7.0 8.9----29.91- 66.0-----
2024-05-23 04:12 pmWSW 8.0 9.9----29.91- 65.7-----
2024-05-23 04:06 pm SW 8.9 9.9----29.91- 65.3-----
2024-05-23 04:00 pm SW 8.0 8.9----29.92-0.01 65.5-----
2024-05-23 03:54 pm SW 8.0 9.9----29.92- 65.1-----
2024-05-23 03:48 pm SW 8.0 9.9----29.92- 65.1-----
2024-05-23 03:42 pm SW 8.9 11.1----29.92- 65.3-----
2024-05-23 03:36 pm SW 8.9 12.0----29.92- 65.3-----
2024-05-23 03:30 pm SW 8.9 11.1----29.93- 65.7-----
2024-05-23 03:24 pm SW 8.9 9.9----29.93- 66.0-----
2024-05-23 03:18 pm SW 8.9 8.9----29.93- 66.2-----
2024-05-23 03:12 pmSSW 7.0 8.0----29.93- 64.9-----
2024-05-23 03:06 pmSSW 7.0 8.0----29.93- 64.4-----
2024-05-23 03:00 pmSSW 7.0 8.0----29.93-0.02 65.3-----
2024-05-23 02:54 pmSSW 8.0 8.0----29.93- 65.3-----
2024-05-23 02:48 pmSSW 7.0 8.0----29.93- 65.3-----
2024-05-23 02:42 pmSSW 8.0 8.9----29.93- 65.7-----
2024-05-23 02:36 pm SW 7.0 8.9----29.93- 65.1-----
2024-05-23 02:30 pm SW 8.0 8.0----29.94- 65.1-----
2024-05-23 02:24 pm SW 7.0 8.0----29.93- 64.0-----
2024-05-23 02:18 pmSSW 8.0 8.9----29.94- 63.3-----
2024-05-23 02:12 pmSSW 8.0 8.9----29.93- 62.8-----
2024-05-23 02:06 pmSSW 8.0 8.9----29.94- 63.0-----
2024-05-23 02:00 pmSSW 8.0 8.9----29.94-0.01 62.4-----
2024-05-23 01:54 pmSSW 8.0 8.9----29.94- 62.4-----
2024-05-23 01:48 pmSSW 8.0 8.0----29.94- 62.6-----
2024-05-23 01:42 pmSSW 8.0 8.0----29.94- 62.4-----
2024-05-23 01:36 pmSSW 7.0 8.0----29.94- 61.2-----
2024-05-23 01:30 pmSSW 7.0 8.0----29.94- 60.8-----
2024-05-23 01:24 pm S 8.0 8.9----29.94- 60.6-----
2024-05-23 01:18 pm S 8.0 8.9----29.94- 60.4-----
2024-05-23 01:12 pm S 7.0 8.0----29.94- 60.8-----
2024-05-23 01:06 pmSSW 6.0 7.0----29.94- 60.6-----
2024-05-23 01:00 pmSSW 6.0 7.0----29.93+0.00 60.6-----
2024-05-23 12:54 pm S 7.0 7.0----29.93- 60.6-----
2024-05-23 12:48 pm S 6.0 6.0----29.94- 61.5-----
2024-05-23 12:42 pm S 5.1 6.0----29.95- 61.0-----
2024-05-23 12:36 pm S 6.0 7.0----29.94- 61.0-----
2024-05-23 12:30 pm S 6.0 7.0----29.94- 61.0-----
2024-05-23 12:24 pm S 6.0 7.0----29.95- 61.0-----
2024-05-23 12:18 pm S 6.0 6.0----29.94- 60.4-----
2024-05-23 12:12 pm S 6.0 6.0----29.94- 60.3-----
2024-05-23 12:06 pm S 6.0 6.0----29.95- 60.8-----
2024-05-23 12:00 pmSSW 5.1 6.0----29.95+0.01 60.4-----
2024-05-23 11:54 amSSW 5.1 6.0----29.95- 60.1-----
2024-05-23 11:48 am S 6.0 6.0----29.95- 60.4-----
2024-05-23 11:42 am S 5.1 6.0----29.95- 60.4-----
2024-05-23 11:36 am S 5.1 5.1----29.95- 60.8-----
2024-05-23 11:30 am S 5.1 7.0----29.95- 60.8-----
2024-05-23 11:24 am S 5.1 5.1----29.95- 61.2-----
2024-05-23 11:18 am S 5.1 6.0----29.95- 61.0-----
2024-05-23 11:12 am S 5.1 6.0----29.94- 61.2-----
2024-05-23 11:06 am S 5.1 6.0----29.95- 61.2-----
2024-05-23 11:00 am S 5.1 5.1----29.95+0.02 60.6-----
2024-05-23 10:54 am S 5.1 5.1----29.94- 60.8-----
2024-05-23 10:48 am S 5.1 5.1----29.94-------
2024-05-23 10:42 am S 5.1 5.1----29.94-------
2024-05-23 10:36 am S 4.1 4.1----29.94-------
2024-05-23 10:30 am S 4.1 5.1----29.94- 60.6-----
2024-05-23 10:24 am S 4.1 4.1----29.94- 60.4-----
2024-05-23 10:18 am S 4.1 5.1----29.94- 60.3-----
2024-05-23 10:12 am S 4.1 4.1----29.94- 60.6-----
2024-05-23 10:06 am S 2.9 4.1----29.94- 60.6-----
2024-05-23 10:00 am S 2.9 4.1----29.94+0.02 60.8-----
2024-05-23 09:54 am S 1.9 2.9----29.94- 60.6-----
2024-05-23 09:48 am S 1.9 2.9----29.95- 60.6-----
2024-05-23 09:42 am S 4.1 4.1----29.95- 59.9-----
2024-05-23 09:36 am S 5.1 5.1----29.94- 59.5-----
2024-05-23 09:30 am S 5.1 6.0----29.94- 59.4-----
2024-05-23 09:24 am S 6.0 6.0----29.94- 59.7-----
2024-05-23 09:18 am S 6.0 6.0----29.94- 59.5-----
2024-05-23 09:12 am S 6.0 6.0----29.94- 59.2-----
2024-05-23 09:06 am S 6.0 6.0----29.94- 59.0-----
2024-05-23 09:00 am S 6.0 6.0----29.94+0.03 59.2-----
2024-05-23 08:54 am S 6.0 8.0----29.94- 59.0-----
2024-05-23 08:48 am S 8.0 8.0----29.93- 59.0-----
2024-05-23 08:42 am S 6.0 6.0----29.93- 59.2-----
2024-05-23 08:36 am S 4.1 6.0----29.94- 59.2-----
2024-05-23 08:30 amSSE 5.1 6.0----29.94- 59.2-----
2024-05-23 08:24 am S 5.1 7.0----29.94- 59.0-----
2024-05-23 08:18 am S 7.0 7.0----29.93- 58.8-----
2024-05-23 08:12 am S 6.0 8.0----29.93- 59.0-----
2024-05-23 08:06 am S 8.0 8.9----29.93- 59.0-----
2024-05-23 08:00 am S 8.0 8.9----29.93+0.02 59.2-----
2024-05-23 07:54 amSSE 8.9 8.9----29.92- 59.4-----
2024-05-23 07:48 amSSE 8.0 8.9----29.92- 59.5-----
2024-05-23 07:42 amSSE 8.0 8.9----29.92- 59.5-----
2024-05-23 07:36 am SE 5.1 7.0----29.92- 59.7-----
2024-05-23 07:30 am SE 5.1 8.9----29.92- 59.9-----
2024-05-23 07:24 am SE 6.0 8.0----29.92- 59.7-----
2024-05-23 07:18 am SE 6.0 7.0----29.92- 59.7-----
2024-05-23 07:12 am SE 6.0 7.0----29.92- 59.7-----
2024-05-23 07:06 am SE 6.0 8.0----29.92- 59.5-----
2024-05-23 07:00 am SE 6.0 8.0----29.92+0.01 59.2-----
2024-05-23 06:54 am SE 4.1 5.1----29.92- 58.8-----
2024-05-23 06:48 am SE 4.1 5.1----29.92- 58.8-----
2024-05-23 06:42 am SE 4.1 5.1----29.92- 58.8-----
2024-05-23 06:36 am SE 5.1 6.0----29.91- 58.8-----
2024-05-23 06:30 amSSE 5.1 6.0----29.91- 58.8-----
2024-05-23 06:24 am SE 5.1 6.0----29.91- 58.8-----
2024-05-23 06:18 amSSE 5.1 7.0----29.91- 58.8-----
2024-05-23 06:12 am SE 6.0 7.0----29.91- 58.8-----
2024-05-23 06:06 amSSE 6.0 7.0----29.91- 58.6-----
2024-05-23 06:00 am SE 5.1 6.0----29.91-0.01 58.8-----
2024-05-23 05:54 am SE 5.1 6.0----29.91- 58.6-----
2024-05-23 05:48 amSSE 5.1 6.0----29.91- 58.8-----
2024-05-23 05:42 amSSE 5.1 7.0----29.91- 58.8-----
2024-05-23 05:36 am SE 6.0 7.0----29.91- 59.0-----
2024-05-23 05:30 am SE 6.0 7.0----29.91- 59.0-----
2024-05-23 05:24 am SE 6.0 8.9----29.91- 59.2-----
2024-05-23 05:18 am SE 7.0 8.0----29.91- 59.2-----
2024-05-23 05:12 am SE 5.1 7.0----29.91- 59.4-----
2024-05-23 05:06 am SE 6.0 8.0----29.91- 59.4-----
2024-05-23 05:00 am SE 7.0 8.9----29.91-0.03 59.2-----
2024-05-23 04:54 am SE 7.0 8.0----29.91- 59.2-----
2024-05-23 04:48 am SE 6.0 8.0----29.91- 59.4-----
2024-05-23 04:42 am SE 7.0 8.0----29.91- 59.5-----
2024-05-23 04:36 am SE 6.0 8.0----29.91- 59.2-----
2024-05-23 04:30 am SE 6.0 8.0----29.91- 59.4-----
2024-05-23 04:24 am SE 7.0 7.0----29.91- 59.7-----
2024-05-23 04:18 amESE 4.1 6.0----29.91- 59.7-----
2024-05-23 04:12 am SE 5.1 6.0----29.91- 59.7-----
2024-05-23 04:06 amESE 5.1 7.0----29.91- 59.7-----
2024-05-23 04:00 am SE 6.0 8.0----29.91-0.04 59.7-----
2024-05-23 03:54 amESE 6.0 8.0----29.91- 59.5-----
2024-05-23 03:48 am SE 5.1 8.0----29.91- 59.7-----
2024-05-23 03:42 amESE 5.1 8.0----29.91- 59.7-----
2024-05-23 03:36 amESE 7.0 8.9----29.91- 59.5-----
2024-05-23 03:30 amESE 6.0 8.0----29.91- 59.4-----
2024-05-23 03:24 am SE 7.0 8.9----29.91- 59.0-----
2024-05-23 03:18 am SE 7.0 8.9----29.91- 59.2-----
2024-05-23 03:12 am SE 6.0 8.9----29.92- 59.2-----
2024-05-23 03:06 am SE 5.1 7.0----29.91- 59.4-----
2024-05-23 03:00 amESE 5.1 7.0----29.92-0.04 59.4-----
2024-05-23 02:54 am E 4.1 5.1----29.92- 59.2-----
2024-05-23 02:48 amESE 5.1 7.0----29.92- 59.2-----
2024-05-23 02:42 am E 5.1 6.0----29.93- 59.2-----
2024-05-23 02:36 amSSE 2.9 4.1----29.92- 59.2-----
2024-05-23 02:30 am SE 1.0 2.9----29.93- 59.4-----
2024-05-23 02:24 amESE 1.9 4.1----29.93- 59.0-----
2024-05-23 02:18 amESE 2.9 4.1----29.93- 58.8-----
2024-05-23 02:12 amSSE 2.9 4.1----29.93- 58.6-----
2024-05-23 02:06 am SE 4.1 4.1----29.93- 58.8-----
2024-05-23 02:00 am S 1.9 2.9----29.93-0.02 58.6-----
2024-05-23 01:54 am S 1.9 2.9----29.93- 58.5-----
2024-05-23 01:48 am S 1.9 2.9----29.93- 58.6-----
2024-05-23 01:42 am S 1.9 2.9----29.94- 58.6-----
2024-05-23 01:36 am S 2.9 2.9----29.94- 58.6-----
2024-05-23 01:30 am S 2.9 2.9----29.94- 58.6-----
2024-05-23 01:24 am S 1.9 2.9----29.94- 58.8-----
2024-05-23 01:18 am S 1.9 2.9----29.94- 58.8-----
2024-05-23 01:12 am S 2.9 2.9----29.95- 58.8-----
2024-05-23 01:06 am S 2.9 2.9----29.94- 58.8-----
2024-05-23 01:00 am S 2.9 2.9----29.95+0.00 58.8-----
2024-05-23 12:54 am S 2.9 2.9----29.95- 58.6-----
2024-05-23 12:48 am S 2.9 2.9----29.95- 58.6-----
2024-05-23 12:42 amSSW 1.9 2.9----29.95- 58.6-----
2024-05-23 12:36 amSSW 1.9 1.9----29.95- 58.6-----
2024-05-23 12:30 am S 1.9 1.9----29.95- 58.5-----
2024-05-23 12:24 am S 1.9 2.9----29.95- 58.6-----
2024-05-23 12:18 amSSW 4.1 4.1----29.95- 58.5-----
2024-05-23 12:12 am S 4.1 5.1----29.95- 58.6-----
2024-05-23 12:06 am S 5.1 5.1----29.96- 58.5-----
2024-05-23 12:00 am S 5.1 6.0----29.96+0.02 58.5-----
2024-05-22 11:54 pm S 5.1 6.0----29.96- 58.3-----